GPS BIIRM-6 (PRN 07)

Last updated on Tue Dec 03 2024 00:03:09 GMT+0000 (Coordinated Universal Time)

1 32711U 08012A 24336.73762584 .00000100 00000+0 00000+0 0 9994 2 32711 54.4532 172.3709 0190611 240.4750 117.6765 2.00573398122474
UTC large
Height (km)
Speed (km/s)
/
Latitude / Longitude
Inclination (degrees)
Orbital Period (minutes)
Azimuth
Elevation
Range (km)
Doppler Factor

Next 0 passes for location: London (51.5072 / 0.1276)

Sorry there are no passes over London.